When you browse on this site, cookies collect data to enhance your experience and personalize the content and advertising you see.
Visit our Privacy Policy to learn more. By continuing to use the site, you agree to this use of cookies and data.
  • In Lithuania
  • List of Countries
  • For 7 days
  • Water Temperature
  • Satellite Maps
  • Weather Map
  • Weather Widgets
  • user-avatar
    Login

    Hourly Weather Shkoder

    Today, 25 May, Saturday

    Time Temperature Precipitation Wind Pressure Humidity
    00:00 +14°C° 0 mm 1 mps 738 mmHg 91%
    01:00 +14°C° 0 mm 1 mps 738 mmHg 91%
    02:00 +14°C° 0 mm 1 mps 738 mmHg 91%
    03:00 +13°C° 0 mm 1 mps 738 mmHg 91%
    04:00 +13°C° 0 mm 1 mps 738 mmHg 91%
    05:00 +15°C° 0 mm 1 mps 739 mmHg 87%
    06:00 +16°C° 0 mm 1 mps 739 mmHg 83%
    07:00 +19°C° 0 mm 1 mps 739 mmHg 79%
    08:00 +20°C° 0.1 mm 1 mps 739 mmHg 76%
    09:00 +19°C° 0.1 mm 2 mps 739 mmHg 73%
    10:00 +20°C° 0.1 mm 2 mps 739 mmHg 69%
    11:00 +21°C° 0.2 mm 2 mps 739 mmHg 69%
    12:00 +21°C° 0.2 mm 3 mps 739 mmHg 68%
    13:00 +22°C° 0.2 mm 3 mps 739 mmHg 67%
    14:00 +21°C° 0.1 mm 3 mps 739 mmHg 67%
    15:00 +21°C° 0.1 mm 2 mps 739 mmHg 67%
    16:00 +21°C° 0.1 mm 2 mps 739 mmHg 68%
    17:00 +20°C° 0 mm 2 mps 739 mmHg 73%
    18:00 +19°C° 0 mm 1 mps 739 mmHg 79%
    19:00 +16°C° 0 mm 0 mps 739 mmHg 84%
    20:00 +16°C° 0 mm 1 mps 739 mmHg 84%
    21:00 +16°C° 0 mm 1 mps 740 mmHg 84%
    22:00 +15°C° 0 mm 1 mps 740 mmHg 85%
    23:00 +15°C° 0 mm 1 mps 740 mmHg 84%

    Tomorrow, 26 May, Sunday

    Time Temperature Precipitation Wind Pressure Humidity
    00:00 +15°C° 0 mm 1 mps 740 mmHg 83%
    01:00 +15°C° 0 mm 1 mps 740 mmHg 82%
    02:00 +14°C° 0 mm 1 mps 740 mmHg 80%
    03:00 +14°C° 0 mm 1 mps 740 mmHg 79%
    04:00 +14°C° 0 mm 2 mps 739 mmHg 78%
    05:00 +16°C° 0 mm 1 mps 739 mmHg 72%
    06:00 +19°C° 0 mm 1 mps 740 mmHg 67%
    07:00 +20°C° 0 mm 1 mps 740 mmHg 62%
    08:00 +22°C° 0 mm 1 mps 740 mmHg 57%
    09:00 +24°C° 0 mm 1 mps 740 mmHg 52%
    10:00 +23°C° 0 mm 0 mps 739 mmHg 47%
    11:00 +26°C° 0 mm 1 mps 739 mmHg 46%
    12:00 +26°C° 0 mm 1 mps 739 mmHg 45%
    13:00 +27°C° 0 mm 1 mps 739 mmHg 43%
    14:00 +26°C° 0 mm 2 mps 739 mmHg 47%
    15:00 +26°C° 0 mm 2 mps 739 mmHg 51%
    16:00 +25°C° 0 mm 2 mps 739 mmHg 54%
    17:00 +23°C° 0 mm 2 mps 739 mmHg 61%
    18:00 +22°C° 0 mm 1 mps 739 mmHg 68%
    19:00 +18°C° 0 mm 0 mps 739 mmHg 74%
    20:00 +20°C° 0 mm 1 mps 739 mmHg 72%
    21:00 +18°C° 0 mm 2 mps 739 mmHg 71%
    22:00 +18°C° 0 mm 2 mps 739 mmHg 69%
    23:00 +18°C° 0 mm 2 mps 739 mmHg 68%

    Day after tomorrow, 27 May, Monday

    Time Temperature Precipitation Wind Pressure Humidity
    00:00 +18°C° 0 mm 2 mps 738 mmHg 67%
    01:00 +18°C° 0 mm 2 mps 738 mmHg 65%
    02:00 +18°C° 0 mm 2 mps 738 mmHg 66%
    03:00 +18°C° 0 mm 2 mps 738 mmHg 67%
    04:00 +18°C° 0 mm 2 mps 738 mmHg 67%
    05:00 +19°C° 0 mm 2 mps 738 mmHg 70%
    06:00 +21°C° 0 mm 1 mps 738 mmHg 72%
    07:00 +21°C° 0 mm 1 mps 738 mmHg 74%
    08:00 +22°C° 0.1 mm 1 mps 738 mmHg 73%
    09:00 +22°C° 0.1 mm 1 mps 738 mmHg 71%
    10:00 +23°C° 0.1 mm 1 mps 738 mmHg 70%
    11:00 +23°C° 0.2 mm 1 mps 738 mmHg 70%
    12:00 +24°C° 0.2 mm 2 mps 738 mmHg 70%
    13:00 +24°C° 0.2 mm 2 mps 737 mmHg 70%
    14:00 +25°C° 0.3 mm 1 mps 737 mmHg 69%
    15:00 +25°C° 0.3 mm 1 mps 737 mmHg 67%
    16:00 +26°C° 0.3 mm 1 mps 736 mmHg 65%
    17:00 +24°C° 0.3 mm 1 mps 736 mmHg 69%
    18:00 +23°C° 0.3 mm 2 mps 736 mmHg 73%
    19:00 +21°C° 0.3 mm 2 mps 736 mmHg 77%
    20:00 +20°C° 0.1 mm 2 mps 736 mmHg 79%
    21:00 +19°C° 0.1 mm 2 mps 736 mmHg 80%
    22:00 +18°C° 0.1 mm 2 mps 736 mmHg 82%
    23:00 +19°C° 0.2 mm 1 mps 736 mmHg 85%

    28 May, Tuesday

    Time Temperature Precipitation Wind Pressure Humidity
    00:00 +18°C° 0.2 mm 1 mps 735 mmHg 88%
    01:00 +16°C° 0.2 mm 0 mps 735 mmHg 90%
    02:00 +16°C° 0.3 mm 0 mps 735 mmHg 90%
    03:00 +16°C° 0.3 mm 1 mps 735 mmHg 90%
    04:00 +16°C° 0.3 mm 1 mps 734 mmHg 90%
    05:00 +18°C° 0.3 mm 1 mps 735 mmHg 86%
    06:00 +20°C° 0.3 mm 1 mps 735 mmHg 82%
    07:00 +21°C° 0.3 mm 1 mps 735 mmHg 77%
    08:00 +21°C° 0.8 mm 2 mps 735 mmHg 76%
    09:00 +21°C° 0.8 mm 3 mps 735 mmHg 74%
    10:00 +22°C° 0.8 mm 4 mps 735 mmHg 73%
    11:00 +21°C° 1.1 mm 4 mps 734 mmHg 75%
    12:00 +21°C° 1.1 mm 4 mps 734 mmHg 78%
    13:00 +20°C° 1.1 mm 4 mps 734 mmHg 81%
    14:00 +19°C° 1.5 mm 4 mps 734 mmHg 84%
    15:00 +19°C° 1.5 mm 4 mps 734 mmHg 87%
    16:00 +18°C° 1.5 mm 4 mps 734 mmHg 91%
    17:00 +18°C° 1.1 mm 3 mps 734 mmHg 91%
    18:00 +17°C° 1.1 mm 3 mps 734 mmHg 92%
    19:00 +17°C° 1.1 mm 3 mps 734 mmHg 93%
    20:00 +17°C° 1.2 mm 3 mps 735 mmHg 92%
    21:00 +17°C° 1.2 mm 3 mps 735 mmHg 92%
    22:00 +17°C° 1.2 mm 4 mps 735 mmHg 92%
    23:00 +17°C° 1.1 mm 3 mps 735 mmHg 92%

    29 May, Wednesday

    Time Temperature Precipitation Wind Pressure Humidity
    00:00 +17°C° 1.1 mm 3 mps 735 mmHg 92%
    01:00 +17°C° 1.1 mm 3 mps 735 mmHg 93%
    02:00 +17°C° 0.8 mm 3 mps 735 mmHg 93%
    03:00 +17°C° 0.8 mm 3 mps 735 mmHg 93%
    04:00 +16°C° 0.8 mm 3 mps 735 mmHg 94%
    05:00 +17°C° 0.9 mm 3 mps 735 mmHg 93%
    06:00 +17°C° 0.9 mm 3 mps 736 mmHg 93%
    07:00 +17°C° 0.9 mm 4 mps 736 mmHg 92%
    08:00 +18°C° 1.4 mm 4 mps 736 mmHg 91%
    09:00 +17°C° 1.4 mm 5 mps 736 mmHg 89%
    10:00 +17°C° 1.4 mm 5 mps 736 mmHg 88%
    11:00 +19°C° 0.8 mm 5 mps 737 mmHg 86%
    12:00 +19°C° 0.8 mm 4 mps 737 mmHg 85%
    13:00 +20°C° 0.8 mm 4 mps 737 mmHg 83%
    14:00 +20°C° 0.2 mm 4 mps 737 mmHg 79%
    15:00 +20°C° 0.2 mm 3 mps 737 mmHg 76%
    16:00 +20°C° 0.2 mm 3 mps 737 mmHg 72%
    17:00 +19°C° 0.1 mm 2 mps 738 mmHg 75%
    18:00 +18°C° 0.1 mm 2 mps 738 mmHg 79%
    19:00 +18°C° 0.1 mm 1 mps 738 mmHg 82%
    20:00 +18°C° 0.3 mm 1 mps 739 mmHg 83%
    21:00 +18°C° 0.3 mm 1 mps 739 mmHg 83%
    22:00 +17°C° 0.3 mm 2 mps 739 mmHg 83%
    23:00 +16°C° 0.3 mm 2 mps 739 mmHg 85%

    30 May, Thursday

    Time Temperature Precipitation Wind Pressure Humidity
    00:00 +16°C° 0.3 mm 2 mps 739 mmHg 86%
    01:00 +16°C° 0.3 mm 2 mps 739 mmHg 87%
    02:00 +15°C° 0.2 mm 2 mps 739 mmHg 88%
    03:00 +15°C° 0.2 mm 2 mps 740 mmHg 89%
    04:00 +15°C° 0.2 mm 1 mps 740 mmHg 90%
    05:00 +16°C° 0.1 mm 1 mps 740 mmHg 87%
    06:00 +18°C° 0.1 mm 1 mps 740 mmHg 83%
    07:00 +19°C° 0.1 mm 2 mps 740 mmHg 80%
    08:00 +19°C° 0.1 mm 2 mps 740 mmHg 75%
    09:00 +20°C° 0.1 mm 2 mps 740 mmHg 70%
    10:00 +21°C° 0.1 mm 2 mps 741 mmHg 65%
    11:00 +21°C° 0.1 mm 2 mps 741 mmHg 63%
    12:00 +22°C° 0.1 mm 3 mps 740 mmHg 61%
    13:00 +22°C° 0.1 mm 3 mps 740 mmHg 60%
    14:00 +22°C° 0 mm 3 mps 740 mmHg 59%
    15:00 +21°C° 0 mm 2 mps 740 mmHg 59%
    16:00 +21°C° 0 mm 2 mps 740 mmHg 59%
    17:00 +19°C° 0 mm 2 mps 740 mmHg 65%
    18:00 +19°C° 0 mm 1 mps 740 mmHg 70%
    19:00 +15°C° 0 mm 0 mps 740 mmHg 76%
    20:00 +15°C° 0 mm 1 mps 740 mmHg 77%
    21:00 +15°C° 0 mm 1 mps 740 mmHg 77%
    22:00 +14°C° 0 mm 1 mps 741 mmHg 78%
    23:00 +14°C° 0 mm 1 mps 741 mmHg 78%
    Show more